Regional Weather Roundup
Issued by NWS Jackson, KY

Home | Current Version | Previous Version | Graphics & Text | Print | Product List | Glossary On
Versions: 1 2 3 4 5 6 7 8 9 10 11 12 13 14 15 16 17 18 19 20 21 22 23 24 25 26 27 28
000
ASUS43 KJKL 200310
RWRJKL

EAST KENTUCKY HOURLY WEATHER ROUNDUP
NATIONAL WEATHER SERVICE JACKSON KY
1000 PM EST SUN FEB 19 2017

NOTE: "FAIR" INDICATES FEW OR NO CLOUDS BELOW 12,000 FEET WITH
NO SIGNIFICANT WEATHER AND/OR OBSTRUCTIONS TO VISIBILITY.

* THESE REPORTS ARE NOT UNDER NWS QUALITY CONTROL AND MAY NOT
  REPORT WEATHER SUCH AS PRECIPITATION AND FOG.

KYZ079-080-083-085-087-088-110-112-115-119-120-200400
...EASTERN KENTUCKY...

CITY           SKY/WX    TMP DP  RH WIND       PRES   REMARKS
JACKSON        CLEAR     50  43  77 NE3       30.16R
LONDON         CLEAR     46  41  82 CALM      30.15R
SOMERSET*      CLEAR     46  43  87 CALM      30.16R
MONTICELLO*    CLEAR     41  39  93 CALM      30.17R
WILLIAMSBURG*  CLEAR     48  46  93 CALM      30.15S
MIDDLESBORO*   CLEAR     44  43  97 CALM      30.17S
HARLAN APT*    CLEAR     46  43  87 CALM      30.17R
PIKE CO APT*     N/A     50  44  81 N6        30.16R
BIG SANDY APT* CLEAR     46  45  95 NE3       30.17S
MOREHEAD APT*  PTCLDY    46  45  93 CALM      30.18R FOG
ASHLAND*       CLOUDY    43  39  87 CALM      30.17R VSB<1/4
$$

KYZ035-036-041-042-044-050-067-078-099-200400
...CENTRAL KENTUCKY...

CITY           SKY/WX    TMP DP  RH WIND       PRES   REMARKS
MT STERLING*   CLEAR     45  45 100 E5        30.18R FOG
FLEMING/MASON* CLEAR     45  45  97 CALM      30.18R FOG
DANVILLE*      PTCLDY    45  43  93 CALM      30.17R FOG
LEXINGTON      CLEAR     47  44  90 CALM      30.16R FOG
FRANKFORT      FOG       41  38  89 CALM      30.16R VSB 1/2
LOUISVILLE     PTCLDY    47  45  93 SE3       30.15R FOG
LEBANON*         N/A     48  48 100 CALM      30.16R
GLASGOW*       CLEAR    N/A N/A N/A CALM      30.14R FOG
BOWLING GREEN  FOG       46  45  96 CALM      30.14R VSB 1/4
$$

KYZ091>093-OHZ055-061-077-WVZ005-015-034-035-042-200400
...SOUTHERN OHIO/WEST VIRGINIA...

CITY           SKY/WX    TMP DP  RH WIND       PRES   REMARKS
COVINGTON      CLEAR     46  45  96 S5        30.16R FOG
COLUMBUS       PTCLDY    48  43  82 S3        30.15R HAZE
DAYTON         CLEAR     47  43  86 S3        30.15R
WILMINGTON     CLEAR     44  42  93 S3        30.15R FOG
HUNTINGTON     CLEAR     46  44  93 E3        30.17R
CHARLESTON     PTCLDY    45  43  93 CALM      30.17S FOG
PINEVILLE*     CLEAR     37  34  87 MISG      30.23R
BECKLEY        CLEAR     40  39  97 CALM      30.17R FOG
BLUEFIELD      CLEAR     42  39  89 W7        30.18R
LOGAN CO APT*    N/A     48  45  87 CALM      30.17R
$$

VAZ002-007-008-TNZ017-027-036-066-071-200400
...SOUTHWEST VIRGINIA/EAST TENNESSEE...

CITY           SKY/WX    TMP DP  RH WIND       PRES   REMARKS
WISE*          CLEAR     46  41  81 CALM      30.18S
JONESVILLE*      N/A     43  41  93 NE3       30.19R
ABINGDON*      CLEAR     45  43  92 CALM      30.17S
BRISTOL        CLEAR     43  40  89 CALM      30.18R
MORRISTOWN*    PTCLDY    48  45  87 CALM      30.16R
SEVIERVILLE*   CLEAR     45  39  81 CALM      30.16R
KNOXVILLE      CLEAR     50  43  77 NE6       30.14R
LAFOLLETTE*    CLEAR     46  45  93 CALM      30.19R
OAK RIDGE      CLEAR     49  45  86 CALM      30.17R
CROSSVILLE     CLEAR     48  44  86 CALM      30.16R
NASHVILLE      CLEAR     56  48  74 SE3       30.13R
$$

...KEY TO REMARKS...
VSB - VISIBILITY IN MILES
WCI - WIND CHILL INDEX
HX  - HEAT INDEX

$$




USA.gov is the U.S. government's official web portal to all federal, state and local government web resources and services.